Location: Klickitat County Star Party
(45.8642°N, 120.6771°W)
Time: 05:07:31
(UTC-07:00)

SO-50 - Pass Details

Date: 01 June 2019
Orbit: 586 x 700 km, 64.6° (Epoch: 20 June)

Event Time Altitude Azimuth Distance (km) Brightness Sun altitude
Rises 22:30:01 0° 327° (NNW) 3,092 ? -13.9°
Reaches altitude 10° 22:33:43 10° 355° (N) 2,166 ? -14.3°
Maximum altitude 22:36:01 13° 23° (NNE) 1,954 ? -14.5°
Drops below altitude 10° 22:38:18 10° 51° (NE) 2,147 ? -14.7°
Sets 22:41:56 0° 79° (E) 3,041 ? -15.1°
